Location: Casilda
(33.0440°S, 61.1680°W)
Time: 08:19:51
(UTC-03:00)

ISS - Pass Details

Date: 17 September 2021
Orbit: 417 x 422 km, 51.6° (Epoch: 28 September)

Event Time Altitude Azimuth Distance (km) Brightness Sun altitude
Rises 06:23:39 0° 2° (N) 2,376 0.1 -8.6°
Reaches altitude 10° 06:27:24 10° 44° (NE) 1,522 -0.3 -7.8°
Maximum altitude 06:28:02 10° 55° (NE) 1,499 -0.1 -7.7°
Drops below altitude 10° 06:28:41 10° 66° (ENE) 1,525 0.3 -7.5°
Sets 06:32:27 0° 108° (ESE) 2,401 1.9 -6.7°
